Weather in Saint-Gaudens

France     43°06′34″N   0°43′37″E
temp.,
°C
wind,
m/s
gust,
m/s
humid.,
%
clouds,
%
prec.,
mm/h
press.,
hPa
HPBL,
m
13 may, thu
thu1323:00+6sw139226 0.9 1020146
02:00+3ssw229311 0.9 102031
05:00+3s22925 0.0 101832
08:00+5s238811 0.0 101781
11:00+13n224219 0.0 10141071
14:00+15n4440100 0.0 10111658
17:00+13n4361100 0.0 1011936
20:00+8e119899 0.9 101297
14 may, fri
fri1423:00+8nw019997 4.2 1014103
02:00+7nw3798100 6.2 1015616
05:00+5wnw269780 1.4 1016501
08:00+5ssw239414 1.6 1018121
11:00+7wnw1486100 0.1 1018317
14:00+12nw466145 0.8 10171513
17:00+13nw4456100 0.5 10161612
20:00+10wnw237444 0.6 1017566
15 may, sat
sat1523:00+6s3389100 0.0 101853
02:00+9s2270100 0.0 101628
05:00+10ssw2356100 0.0 101253
08:00+10s1263100 0.0 101335
11:00+11ssw0177100 0.2 101354
14:00+13ese1177100 0.3 1012123
17:00+12sse0183100 0.1 101230
20:00+10nw1195100 0.4 101427
16 may, sun
sun1623:00+11sse119593 0.3 101414
02:00+12sw119693 0.4 101318
05:00+12wnw1197100 0.0 101227
08:00+12nnw0299100 0.1 1013199
11:00+11nnw2599100 0.9 1014465
14:00+10n1299100 2.1 1015198
17:00+10nnw1297100 0.1 1015255
20:00+9nw0297100 0.2 1016188
17 may, mon
mon1723:00+9wsw0196100 0.1 101838
02:00+8wnw1397100 0.2 1018174
05:00+7sw119399 0.1 101868
08:00+7ssw1187100 0.1 101968
11:00+9wnw267194 0.0 10201113
14:00+12wnw355591 0.1 10191658
17:00+11wnw576268 0.1 10201342
20:00+9wnw377138 0.2 1022720